This is the latest recevied weather packets stored in our database for station/object KI4HRG. If no packets are shown the sender has not sent any weather packets the latest 10 day(s).
| Time | Temp. | Humidity | Pressure | Rain* | Wind** | Luminosity | Snow |
|---|---|---|---|---|---|---|---|
| 1777858425 | 13.89° C | 69% | 1018 hPa | 0 mm | - | 0 W/m² | - |
| 1777858122 | 13.89° C | 70% | 1017.9 hPa | 0 mm | - | 0 W/m² | - |
| 1777857820 | 14.44° C | 68% | 1017.7 hPa | 0 mm | - | 0 W/m² | - |
| 1777857517 | 15° C | 67% | 1017.8 hPa | 0 mm | - | 0 W/m² | - |
| 1777857213 | 15° C | 66% | 1017.8 hPa | 0 mm | - | 0 W/m² | - |
| 1777856910 | 15.56° C | 65% | 1017.8 hPa | 0 mm | - | 0 W/m² | - |
| 1777856605 | 15.56° C | 64% | 1017.7 hPa | 0 mm | - | 0 W/m² | - |
| 1777856302 | 15.56° C | 61% | 1017.8 hPa | 0 mm | - | 0 W/m² | - |
| 1777855999 | 16.11° C | 60% | 1017.6 hPa | 0 mm | - | 0 W/m² | - |
| 1777855696 | 16.11° C | 59% | 1017.6 hPa | 0 mm | - | 0 W/m² | - |
| 1777855394 | 16.11° C | 57% | 1017.5 hPa | 0 mm | - | 0 W/m² | - |
| 1777855090 | 16.67° C | 58% | 1017.6 hPa | 0 mm | - | 0 W/m² | - |
| 1777854787 | 16.67° C | 58% | 1017.5 hPa | 0 mm | - | 1 W/m² | - |
| 1777854483 | 16.67° C | 57% | 1017.5 hPa | 0 mm | - | 3 W/m² | - |
| 1777854181 | 17.22° C | 56% | 1017.5 hPa | 0 mm | - | 5 W/m² | - |
| 1777853878 | 17.22° C | 55% | 1017.4 hPa | 0 mm | - | 7 W/m² | - |
| 1777853575 | 17.78° C | 55% | 1017.5 hPa | 0 mm | - | 10 W/m² | - |
| 1777853272 | 17.78° C | 55% | 1017.5 hPa | 0 mm | - | 13 W/m² | - |
| 1777852969 | 17.78° C | 53% | 1017.4 hPa | 0 mm | - | 16 W/m² | - |
| 1777852667 | 18.33° C | 54% | 1017.5 hPa | 0 mm | - | 18 W/m² | - |
| 1777852364 | 18.33° C | 53% | 1017.5 hPa | 0 mm | - | 21 W/m² | - |
| 1777852061 | 18.89° C | 52% | 1017.4 hPa | 0 mm | - | 23 W/m² | - |
| 1777851759 | 18.89° C | 48% | 1017.3 hPa | 0 mm | - | 26 W/m² | - |
| 1777851456 | 18.89° C | 49% | 1017.3 hPa | 0 mm | - | 27 W/m² | - |
| 1777851152 | 19.44° C | 47% | 1017.3 hPa | 0 mm | - | 29 W/m² | - |
* Rain latest hour (hover to see other rain measurements)
** Current wind speed in m/s (hover to see current wind gust speed)